Hourly Data Report for September 24, 2022

LYNN LAKE
MANITOBA
Current Station Operator: NAVCAN

56°51'50.000" N
101°04'34.000" W
356.60 m
5061645
71078
YYL

Download Data

Hourly Data (September 2022)
Hourly Data Report for September 24, 2022
TIME
LST
Temp Definition
°C
Dew Point Definition
°C
Rel Hum Definition
%
Precip. Amount Definition
mm

Wind Dir Definition
10's deg

Wind Spd Definition
km/h
Visibility Definition
km
Stn Press Definition
kPa
Hmdx Definition


Wind Chill Definition


Weather Definition


00:00 11.2 6.6 73 0.0 29 11 16.1 96.06     LegendNANA
01:00 9.8 5.4 74 0.0 28 9 16.1 96.06     LegendNANA
02:00 8.8 4.8 76 0.0 27 9 16.1 96.07     LegendNANA
03:00 8.5 4.4 75 0.0 27 11 16.1 96.10     LegendNANA
04:00 7.4 3.9 78 0.0 27 9 16.1 96.13     LegendNANA
05:00 6.6 3.9 83 0.0 27 9 16.1 96.16     LegendNANA
06:00 5.2 2.9 85 0.0 27 11 16.1 96.18     LegendNANA
07:00 3.1 2.1 93 0.0 25 11 16.1 96.20     LegendNANA
08:00 6.7 3.8 82 0.0 26 5 16.1 96.23     LegendNANA
09:00 11.3 4.2 62 0.0 26 11 16.1 96.24     LegendNANA
10:00 15.0 2.1 42 0.0 28 13 16.1 96.24     LegendNANA
11:00 16.5 1.6 36 0.0 26 17 16.1 96.21     LegendNANA
12:00 16.4 2.6 39 0.0 25 13 16.1 96.20     LegendNANA
13:00 16.8 3.0 39 0.0 26 18 16.1 96.16     LegendNANA
14:00 16.6 2.7 39 0.0 28 22 16.1 96.18     LegendNANA
15:00 17.4 3.8 40 0.0 30 22 16.1 96.20     LegendNANA
16:00 16.5 2.9 40 0.0 29 17 16.1 96.26     LegendNANA
17:00 16.6 3.8 42 0.0 28 15 16.1 96.28     LegendNANA
18:00 13.4 4.5 55 0.0 27 9 16.1 96.31     LegendNANA
19:00 13.1 4.4 55 0.0 32 21 16.1 96.48     LegendNANA
20:00 11.6 6.0 68 0.0 29 15 16.1 96.55     LegendNANA
21:00 10.1 5.1 71 0.0 29 13 16.1 96.58     LegendNANA
22:00 10.2 5.6 73 0.0 28 11 16.1 96.61     LegendNANA
23:00 10.4 5.3 71 0.0 32 22 16.1 96.67     Rain

Notes on Data Quality.

Legend

  • E = Estimated
  • M = Missing
  • NA = Not Available*
  • [empty] = Indicates an unobserved value
Date modified: